Regional Weather Roundup
Issued by NWS

Home | Current Version | Previous Version | Text Only | Print | Product List | Glossary Off
Versions: 1 2 3 4 5 6 7 8 9 10 11 12 13 14 15 16 17 18 19 20 21 22 23 24 25 26 27 28 29 30 31 32 33 34 35 36 37 38 39 40 41 42 43 44 45 46 47 48 49 50

000
ASUS43 KDTX 270001
RWRMI
MICHIGAN HOURLY REGIONAL WEATHER ROUNDUP
NATIONAL WEATHER SERVICE DETROIT/PONTIAC MI
800 PM EDT WED JUL 26 2017

NOTE: "FAIR" INDICATES FEW OR NO CLOUDS BELOW 12,000 FEET WITH NO
SIGNIFICANT WEATHER AND/OR OBSTRUCTION TO VISIBILITY.

MIZ047>049-052>055-059>063-066>070-074>076-081>083-270100-
SOUTHEAST LOWER MICHIGAN

CITY           SKY/WX    TMP DP  RH WIND       PRES   REMARKS
ADRIAN         PTCLDY    77  64  64 CALM      30.05S
6HR MIN TEMP:  77; 6HR MAX TEMP:  80;

ALMA           LGT RAIN  75  64  68 S6G16     30.01F
ANN ARBOR      MOCLDY    75  64  68 S3        30.04S
BAD AXE        LGT RAIN  69  66  90 SW10      30.04R
CARO           LGT RAIN  71  69  94 CALM      30.03F
DETROIT CITY   PTCLDY    78  63  59 S9        30.04S
6HR MIN TEMP:  77; 6HR MAX TEMP:  82;

DETROIT        CLOUDY    78  62  57 S7        30.05S
6HR MIN TEMP:  78; 6HR MAX TEMP:  82;

FLINT          CLOUDY    77  63  61 SW3       30.04S
6HR MIN TEMP:  76; 6HR MAX TEMP:  82;

GROSSE ILE     PTCLDY    75  66  73 SE3       30.04S
6HR MIN TEMP:  75; 6HR MAX TEMP:  77;

HILLSDALE      CLOUDY    73  63  68 SE3       30.04S
HOWELL         MOCLDY    76  64  66 SE5       30.04F
6HR MIN TEMP:  76; 6HR MAX TEMP:  81;


CITY           SKY/WX    TMP DP  RH WIND       PRES   REMARKS
JACKSON        CLOUDY    79  60  52 SE3       30.04S
6HR MIN TEMP:  78; 6HR MAX TEMP:  81;

LAMBERTVILLE   MOCLDY    77  63  61 CALM      30.03F
6HR MIN TEMP:  77; 6HR MAX TEMP:  80;

LANSING        PTSUNNY   78  63  59 CALM      30.03F
6HR MIN TEMP:  77; 6HR MAX TEMP:  83;

LAPEER         CLOUDY    78  63  61 S5        30.05R
6HR MIN TEMP:  77; 6HR MAX TEMP:  81;

MASON          CLOUDY    75  67  76 CALM      30.04F
MONROE         MOCLDY    76  67  75 CALM      30.04S
MT. CLEMENS    CLOUDY    75  66  74 SE6       30.04R
6HR MIN TEMP:  74; 6HR MAX TEMP:  81;

PONTIAC        CLOUDY    77  61  57 SW5       30.04R
6HR MIN TEMP:  76; 6HR MAX TEMP:  82;

PORT HOPE        N/A     70  66  87 VRB7      30.00R
6HR MIN TEMP:  68; 6HR MAX TEMP:  76; 6HR PCP:  0.19;

PORT HURON     CLOUDY    75  64  69 CALM      30.05R
TRI CITIES     LGT RAIN  72  72 100 SE7       30.01F FOG
6HR MIN TEMP:  71; 6HR MAX TEMP:  77; 6HR PCP:  0.25;

MIDLAND        RAIN      72  70  94 S6        29.99F
6HR MIN TEMP:  69; 6HR MAX TEMP:  77; 6HR PCP:  0.53;

TROY           MOCLDY    80  59  49 SW5       30.06S
SAGINAW HB     CLOUDY    72  70  94 E3        30.01F
$$
MIZ043>046-050>051-056>058-064>065-071>073-077>080-270100-
SOUTHWEST LOWER MICHIGAN

CITY           SKY/WX    TMP DP  RH WIND       PRES   REMARKS
BATTLE CREEK   CLOUDY    79  64  60 S5        30.04R
6HR MIN TEMP:  78; 6HR MAX TEMP:  83;

BENTON HARBOR  CLOUDY    80  68  66 SE3       30.00S
6HR MIN TEMP:  80; 6HR MAX TEMP:  84;

BIG RAPIDS     LGT RAIN  70  68  93 S3        30.01F
6HR MIN TEMP:  67; 6HR MAX TEMP:  71; 6HR PCP:  0.45;

COLDWATER      MOSUNNY   77  67  70 CALM      30.03S
6HR MIN TEMP:  77; 6HR MAX TEMP:  82;

FREMONT        RAIN      71  70  96 CALM      30.02R
HOLLAND        PTSUNNY   78  66  66 S3        30.02R
6HR MIN TEMP:  78; 6HR MAX TEMP:  82;

GRAND RAPIDS   CLOUDY    77  67  71 SE6       30.01S
6HR MIN TEMP:  77; 6HR MAX TEMP:  83;

IONIA          FAIR      76  64  65 CALM      30.02S
6HR MIN TEMP:  76; 6HR MAX TEMP:  82;

KALAMAZOO      CLOUDY    80  62  54 CALM      30.03R
6HR MIN TEMP:  79; 6HR MAX TEMP:  84;

LUDINGTON      LGT RAIN  69  67  95 S6        29.96F
6HR MIN TEMP:  68; 6HR MAX TEMP:  71; 6HR PCP:  0.28;

MARSHALL       CLOUDY    78  67  68 CALM      30.03S
6HR MIN TEMP:  78; 6HR MAX TEMP:  82;

MOUNT PLEASANT PTSUNNY   73  70  91 CALM      30.01R FOG
6HR MIN TEMP:  69; 6HR MAX TEMP:  75; 6HR PCP:  0.67;

MUSKEGON       CLOUDY    76  65  68 W5        30.02S
6HR MIN TEMP:  74; 6HR MAX TEMP:  78;

SOUTH HAVEN    PTSUNNY   79  70  73 CALM      30.01R
$$
MIZ016>042-270100-
NORTHERN LOWER MICHIGAN

CITY           SKY/WX    TMP DP  RH WIND       PRES   REMARKS
ALPENA         LGT RAIN  71  69  93 SW5       29.97R
6HR MIN TEMP:  68; 6HR MAX TEMP:  72; 6HR PCP:  0.28;

BEAVER ISLAND  CLOUDY    69  67  92 SW9       29.95S
6HR MIN TEMP:  67; 6HR MAX TEMP:  72;

BELLAIRE       CLOUDY    71  67  85 SW3       29.96S
6HR MIN TEMP:  68; 6HR MAX TEMP:  71;

CADILLAC       DRIZZLE   71  68  90 W6        30.02R
CHARLEVOIX     CLOUDY    71  69  91 SW9       29.98R
FRANKFORT      CLOUDY    70  69  99 SW5       29.97F
GAYLORD        CLOUDY    70  65  84 SW12      29.99S
6HR MIN TEMP:  68; 6HR MAX TEMP:  71; 6HR PCP:  0.18;

GRAYLING       CLOUDY    70  65  86 SW5       30.00R
6HR MIN TEMP:  67; 6HR MAX TEMP:  70;

HARBOR SPRINGS CLOUDY    69  68  95 W5        29.96S
HOUGHTON LAKE  LGT RAIN  70  67  90 SW7       30.01R
6HR MIN TEMP:  69; 6HR MAX TEMP:  72; 6HR PCP:  0.24;

MANISTEE       CLOUDY    69  68  96 S6        29.96F
OSCODA         CLOUDY    69  67  93 SW10      29.98S
6HR MIN TEMP:  69; 6HR MAX TEMP:  74; 6HR PCP:  0.11;

PELLSTON       CLOUDY    70  67  90 W6        29.96S
6HR MIN TEMP:  68; 6HR MAX TEMP:  73; 6HR PCP:  0.03;

ROGERS CITY    LGT RAIN  69  67  93 SW6       29.97S
TRAVERSE CITY  CLOUDY    73  67  81 SW8       29.95S
6HR MIN TEMP:  68; 6HR MAX TEMP:  73; 6HR PCP: TRACE;

$$
MIZ007>008-015-270100-
EASTERN UPPER MICHIGAN

CITY           SKY/WX    TMP DP  RH WIND       PRES   REMARKS
KINROSS        CLOUDY    70  67  90 SW5       29.95R
6HR MIN TEMP:  67; 6HR MAX TEMP:  74;

MACKINAC ISLAN CLOUDY    67  67 100 SW12G20   29.96R
6HR MIN TEMP:  67; 6HR MAX TEMP:  69;

NEWBERRY       PTSUNNY   70  69  97 CALM      29.94R
6HR MIN TEMP:  67; 6HR MAX TEMP:  77;

S. S. MARIE    SUNNY     72  58  61 NW6       29.93R
6HR MIN TEMP:  69; 6HR MAX TEMP:  75; 6HR PCP: TRACE;

MUNISING         N/A     74  60  61 CALM      29.94R
6HR MIN TEMP:  70; 6HR MAX TEMP:  76;

$$
MIZ004>006-011>014-085-270100-
CENTRAL UPPER MICHIGAN

CITY           SKY/WX    TMP DP  RH WIND       PRES   REMARKS
MANISTIQUE     CLOUDY    69  66  89 CALM      29.93S
6HR MIN TEMP:  66; 6HR MAX TEMP:  75;

ESCANABA       TSTM      75  69  81 N13       29.92R
6HR MIN TEMP:  72; 6HR MAX TEMP:  77; 6HR PCP: TRACE;

MENOMINEE      CLOUDY    77  71  82 SW6       29.93S
6HR MIN TEMP:  70; 6HR MAX TEMP:  77; 6HR PCP:  0.01;

SAWYER-GWINN   MOSUNNY   73  61  64 NE7       29.95R
$$
MIZ001>003-009>011-084-270100-
WESTERN UPPER MICHIGAN

CITY           SKY/WX    TMP DP  RH WIND       PRES   REMARKS
IRON MOUNTAIN  SUNNY     81  59  47 N12       29.92R
6HR MIN TEMP:  75; 6HR MAX TEMP:  84;

HOUGHTON       SUNNY     76  55  48 W15       29.94S
6HR MIN TEMP:  75; 6HR MAX TEMP:  78;

COPPER HARBOR    N/A     76  53  44 NW8       29.91R
6HR MIN TEMP:  70; 6HR MAX TEMP:  78;

IRONWOOD       SUNNY     77  58  51 NW9       29.99R
6HR MIN TEMP:  76; 6HR MAX TEMP:  78;

$$

ABBREVIATIONS USED IN REMARKS
   TC - TEMPERATURE IN CELSIUS
  WCI - WIND CHILL INDEX
   HX - HEAT INDEX
  VSB - VISIBILITY





USA.gov is the U.S. government's official web portal to all federal, state and local government web resources and services.